Location: *
(52.2090°N, 4.1550°W)
Time: 09:33:27
(UTC+00:00)

Cosmos 1500 Rocket - Pass Details

Date: 27 October 2019
Orbit: 603 x 631 km, 82.5° (Epoch: 14 November)

Event Time Altitude Azimuth Distance (km) Brightness Sun altitude
Rises 18:51:22 0° 355° (N) 2,936 7.1 -17.9°
Reaches altitude 10° 18:53:49 10° 5° (N) 2,021 6.2 -18.3°
Enters shadow 18:57:06 31° 49° (NE) 1,118 4.5 -18.8°
